Weather History for Indian Springs, NV

Change the Weather History Date:

Monday, November 19, 2012

  Actual Average (KDRA) Record (KDRA)
Temperature  
Mean Temperature 50 °F -  
Max Temperature 63 °F 59 °F 73 °F (2002)
Min Temperature 37 °F 37 °F 28 °F (2000)
Degree Days  
Heating Degree Days 15    
Moisture  
Dew Point 33 °F    
Average Humidity 55    
Maximum Humidity 75    
Minimum Humidity 35    
Precipitation  
Precipitation 0.00 in - - ()
Sea Level Pressure  
Sea Level Pressure 30.22 in    
Wind  
Wind Speed 2 mph (WSW)    
Max Wind Speed 10 mph    
Max Gust Speed -    
Visibility 10 miles    
Events      
Averages and records for this station are not official NWS values.
T = Trace of Precipitation, MM = Missing Value Source: NWS Daily Summary

Daily Weather History Graph

Daily Weather History Graph

Search for Another Location

Airport:

Trip Planner

Search our weather history database for the weather conditions in past years. The results will help you decide how hot, cold, wet, or windy it might be!

Date:

Astronomy

Nov. 19, 2012 Rise Set
Actual Time 6:25 AM PST 4:31 PM PST
Civil Twilight 5:57 AM PST 4:58 PM PST
Nautical Twilight 5:25 AM PST 5:30 PM PST
Astronomical Twilight 4:55 AM PST 6:01 PM PST
Moon 11:34 AM PST (11/19) 10:58 PM PST (11/19)
Length of Visible Light 11h 01m
Length of Day
10h 06m
Waxing Crescent, 42% of the Moon is Illuminated
Nov 19
Waxing Crescent
Nov 20
First Quarter
Nov 28
Full
Dec 6
Last Quarter
Dec 13
New

Hourly Weather History & Observations

Time (PST) Temp. Windchill Dew Point Humidity Pressure Visibility Wind Dir Wind Speed Gust Speed Precip Events Conditions
12:58 AM 43.9 °F - 32.0 °F 63% 30.14 in 10.0 mi West 2.3 mph - N/A   Clear
1:58 AM 42.1 °F 40.2 °F 31.6 °F 67% 30.16 in 10.0 mi South 3.5 mph - N/A   Clear
2:58 AM 41.4 °F - 31.1 °F 67% 30.15 in 10.0 mi SW 2.3 mph - N/A   Clear
3:58 AM 38.8 °F 35.4 °F 30.2 °F 71% 30.16 in 10.0 mi WSW 4.6 mph - N/A   Clear
4:58 AM 37.8 °F - 30.0 °F 74% 30.18 in 10.0 mi Calm Calm - N/A   Clear
5:58 AM 37.4 °F - 29.7 °F 74% 30.20 in 10.0 mi SW 1.2 mph - N/A   Clear
6:58 AM 39.2 °F - 32.0 °F 75% 30.22 in 7.0 mi East 1.2 mph - N/A   Partly Cloudy
7:54 AM 42.8 °F - 32.0 °F 66% 30.25 in 10.0 mi Calm Calm - N/A   Clear
7:55 AM 44.6 °F - 32.0 °F 61% 30.26 in 10.0 mi Calm Calm - N/A   Partly Cloudy
8:55 AM 48.2 °F - 33.8 °F 58% 30.22 in 10.0 mi Calm Calm - N/A   Clear
9:55 AM 53.6 °F - 35.6 °F 51% 30.23 in 10.0 mi North 3.5 mph - N/A   Clear
10:54 AM 57.2 °F - 35.6 °F 44% 30.26 in 10.0 mi ENE 2.3 mph - N/A   Clear
10:55 AM 57.2 °F - 35.6 °F 44% 30.21 in 10.0 mi Calm Calm - N/A   Clear
11:54 AM 57.2 °F - 35.6 °F 44% 30.23 in 10.0 mi Calm Calm - N/A   Clear
11:55 AM 57.2 °F - 35.6 °F 44% 30.18 in 10.0 mi Calm Calm - N/A   Clear
12:58 PM 62.1 °F - 36.7 °F 39% 30.22 in 10.0 mi Variable 1.2 mph - N/A   Clear
1:58 PM 63.1 °F - 36.0 °F 36% 30.21 in 10.0 mi Calm Calm - N/A   Clear
2:58 PM 63.9 °F - 35.2 °F 35% 30.20 in 10.0 mi Calm Calm - N/A   Clear
3:58 PM 62.2 °F - 35.2 °F 37% 30.21 in 10.0 mi Calm Calm - N/A   Clear
4:58 PM 58.8 °F - 35.2 °F 41% 30.22 in 10.0 mi Calm Calm - N/A   Clear
5:58 PM 54.9 °F - 35.4 °F 48% 30.23 in 10.0 mi SSW 2.3 mph - N/A   Clear
6:58 PM 50.4 °F - 33.1 °F 52% 30.23 in 10.0 mi WSW 9.2 mph - N/A   Clear
7:58 PM 48.7 °F - 32.9 °F 54% 30.24 in 10.0 mi WSW 8.1 mph - N/A   Clear
8:58 PM 47.5 °F - 32.5 °F 56% 30.25 in 10.0 mi West 10.4 mph - N/A   Clear
9:58 PM 46.6 °F - 32.9 °F 59% 30.25 in 10.0 mi WSW 5.8 mph - N/A   Clear
10:58 PM 44.6 °F 40.7 °F 31.8 °F 61% 30.25 in 10.0 mi WSW 6.9 mph - N/A   Clear
11:58 PM 41.9 °F 39.0 °F 31.1 °F 66% 30.25 in 10.0 mi WSW 4.6 mph - N/A   Clear